Pagina principale
METAR-TAF:

METAR-TAF

Aeroporti :

Searcy Municipal Airport

Searcy, Arkansas, Stati Uniti

latitudine: 35-12-43N, longitudine: 091-44-14W, altezza: 81 m

Osservazione

Il bollettino è stato emesso 38 minuti fa, alle 13:56 UTC
Vento 5 kt da nord
Temperature 9°C
Umidità 81%
Pressione 1028 hPa
Visibilità: 16.1 km
Nuvoloso ad un'altezza di 8500 ft

METAR: KSRC 261356Z AUTO 35005KT 10SM BKN085 09/06 A3037 RMK AO2 SLP294 T00940061

Ora: 09:34 (14:34 UTC)


TAF: mancante

Osservazioni e previsioni meteorologiche di più di 4000 aeroporti (messaggi METAR e TAF).

Le stazioni disponibili sono rappresentate dai dischi gialli e rossi sulla carta.

Puntare il mouse per vedere il nome della stazione.

Clicca sopra per visualizzare le osservazioni e previsioni meteorologiche.

Per cambiare la mappa : fare clic sui pulsanti verdi con una croce nera per ingrandire, il pulsante verde con un trattino per diminuire, o sulla freccia verde per le mappe adiacenti.


METAR-TAF: